Motocross delle Nazioni 2016 Live: Gara in diretta tv e streaming gratis su Italia 1

Motocross delle Nazioni 2016: Offerte Hotel

Oggi 25 settembre 2016 sono in programma le gare del Motocross delle Nazioni 2016, che potranno essere seguite live in diretta tv e streaming gratis su Italia 1.

Il Motocross delle Nazioni 2016 è giunto al suo giorno cruciale: oggi 25 settembre 2016 sono in programma le gare di tutte e tre le categorie: Mxgp, Mx2 e Open. In gara i migliori piloti al mondo, che si daranno battaglia sulla terra italiana del Maggiora Park, che torna ad ospitare l’evento a trent’anni di distanza dall’ultima volta. Le gare potranno essere seguite in diretta tv su Italia 1. 

Motocross delle Nazioni 2016 in diretta tv su Italia 1

Le gare del Motocross delle Nazioni 2016 verranno trasmesse in chiaro su Italia 1 a partire dalle ore 13.10, con gara 1 di Mxgp e Mx2. Successivamente, alle ore 14.40, ci sarà gara 2 della Mx2 e della categoria Open. Infine, alle ore 16.10, il gran finale con gara 3 di Mxgp ed Mx2. Oltre alla diretta televisiva sarà disponibile anche lo streaming gratis sul sito ufficiale di Italia 1. Le gare potranno essere riviste in differita su Premium Sport a partire dalle ore 17.00.

I risultati delle qualifiche

Romain Febvre ha portato a casa la gara di qualifica, disputata nel primo pomeriggio di ieri. Il francese, che quest’anno ha ceduto la corona iridata a Tim Gajser, è pronto al riscatto, ma dovrà fare i conti con Tony Cairoli. L’italiano va a nozze tra le mura amiche ed è prontissimo a lottare fino all’ultimo. Il suo secondo posto, con tanto di caduta, la dice lunga sulla voglia e la determinazione che verranno messi in pista dal siciliano della KTM.

Terzo tempo per Strijbos, seguito da Searle. Male Nagl. Ecco la tabella completa dei risultati:

Qualifying Heat MXGP – Classification
Pos Nr Rider Nat. Fed. Bike Time laps Diff. First Diff. Prev. Bestlaptime in lap Speed
1 1 Febvre, Romain FRA FFM Yamaha 24:59.780 12 0:00.000 0:00.000 1:52.807 4 58.4
2 40 Cairoli, Antonio ITA FMI KTM 25:17.845 12 0:18.065 0:18.065 1:53.053 9 58.2
3 7 Strijbos, Kevin BEL FMB Suzuki 25:21.990 12 0:22.210 0:04.145 1:55.339 4 57.1
4 52 Searle, Tommy GBR ACU Kawasaki 25:33.769 12 0:33.989 0:11.779 1:56.449 5 56.5
5 16 Coldenhoff, Glenn NED KNMV KTM 25:53.562 12 0:53.782 0:19.793 1:57.075 2 56.2
6 31 Butron, Jose ESP RFME KTM 25:57.395 12 0:57.615 0:03.833 1:58.474 7 55.6
7 19 Waters, Todd AUS MA Suzuki 26:00.900 12 1:01.120 0:03.505 1:58.785 9 55.4
8 28 Neurauter, Lukas AUT OeAMTC KTM 26:05.994 12 1:06.214 0:05.094 1:57.344 4 56.1
9 58 Narita, Akira JPN MFJ Honda 26:07.511 12 1:07.731 0:01.517 1:58.304 2 55.6
10 112 Benoit, Kaven CAN CMA KTM 26:08.130 12 1:08.350 0:00.619 1:56.180 2 56.7
11 43 Larsen, Nikolaj DEN DMU KTM 26:08.561 12 1:08.781 0:00.431 1:58.064 2 55.8
12 22 Cooper, Cody NZL MNZ Honda 26:09.358 12 1:09.578 0:00.797 1:58.934 2 55.3
13 37 Gole, Anton SWE SVEMO Husqvarna 26:09.900 12 1:10.120 0:00.542 1:58.637 4 55.5
14 10 Ratsep, Priit EST EMF Honda 26:10.269 12 1:10.489 0:00.369 1:58.296 9 55.6
15 55 Ivanovs, Davis LAT LAMSF Yamaha 26:35.298 12 1:35.518 0:25.029 1:59.161 12 55.2
16 46 Goncalves, Rui POR FMP Husqvarna 26:35.468 12 1:35.688 0:00.170 1:57.816 2 55.9
17 73 Bucas, Vytautas LTU LMSF Yamaha 26:48.203 12 1:48.423 0:12.735 2:01.444 4 54.2
18 4 Webb, Cooper USA AMA Yamaha 26:50.822 12 1:51.042 0:02.619 1:56.878 5 56.3
19 82 Malin, Valtteri FIN SML KTM 26:52.935 12 1:53.155 0:02.113 2:02.040 2 53.9
20 61 Irt, Peter SLO AMZS Yamaha 26:53.444 12 1:53.664 0:00.509 2:01.483 9 54.2
21 64 Romancik, Jaromir CZE ACCR Suzuki 27:26.133 12 2:26.353 0:32.689 2:01.803 4 54
22 124 Marini, Thomas SMR FSM Husqvarna 25:11.080 11 1 lap 1 lap 2:03.748 2 53.2
23 34 Rogozin, Semen RUS MFR Husqvarna 25:12.166 11 1 lap 0:01.086 2:03.180 3 53.4
24 79 Dos Santos , Fabio Aparecido BRA CBM Yamaha 25:14.141 11 1 lap 0:01.975 2:04.717 2 52.8
25 91 Morozov, Roman UKR FMU Yamaha 25:14.720 11 1 lap 0:00.579 2:02.634 4 53.7
26 70 Lonka, Lukasz POL PZM KTM 25:27.046 11 1 lap 0:12.326 2:02.879 4 53.6
27 76 Simko, Tomas SVK SMF Honda 25:30.807 11 1 lap 0:03.761 2:01.664 2 54.1
28 88 Karas, Hrvoje CRO HMS Yamaha 25:58.359 11 1 lap 0:27.552 2:06.355 2 52.1
29 97 Astudillo, Jason PUR AMA Kawasaki 26:34.812 11 1 lap 0:36.453 2:09.542 5 50.8
30 94 Kontoletas, Dimitrios GRE AMOTOE Yamaha 27:04.981 11 1 lap 0:30.169 2:11.323 4 50.1
31 100 Tabouraing , Eric LUX MUL Kawasaki 26:07.878 10 2 laps 1 lap 2:17.315 2 47.9
32 106 Karmi, Ziv ISR MEMSI KTM 26:33.705 10 2 laps 0:25.827 2:19.627 2 47.1
33 109 Fitzgerald, Kerim RSA MSA KTM 17:42.172 7 5 laps 3 laps 2:03.085 2 53.5
34 13 Guillod, Valentin SUI FMS Yamaha 2:28.149 0 12 laps 7 laps 0:00.000 0
35 115 Hugyecz, Erik HUN MAMS KTM 0:00.000 -1 13 laps 1 lap 0:00.000 0
36 25 Nagl, Maximilian GER DMSB Husqvarna 0:00.000 -1 13 laps 0:00.000 0:00.000 0

LEGGI ANCHE:

Nata l'11 dicembre 1990 a Catania e laureata in Scienze della Comunicazione presso l'Università degli Studi della città etnea. Ho iniziato a scrivere un po' per gioco nel 2012. La mia materia prima è il calcio, occhio però... più che i tacchetti preferisco indossare il tacco 12! Adoro la musica e mi diletto ad armeggiare tra i fornelli. Il mio piatto forte? Chiedetelo ai "miei" assaggiatori...